Location: Poughquag
(41.6090°N, 73.6820°W)
Time: 01:09:56
(UTC-04:00)

Amateur Radio Satellites - All Passes

Search period start: 25 June 2017 00:39
Search period end: 26 June 2017 00:39
Location: Poughquag, 41.6090°N, 73.6820°W

Satellite Date Start Highest point End Downlink Frequencies (MHz)
Time Altitude Azimuth
50 SAT 25 Jun 00:55:20 00:58:42 77° 78° (ENE) 01:02:05 437.505
NO-84 25 Jun 01:00:06 01:02:45 16° 348° (NNW) 01:05:27 435.350 FM
POLYITAN 1 25 Jun 01:03:19 01:07:36 71° 285° (WNW) 01:11:50 437.675
QB50P2 25 Jun 01:14:13 01:18:20 48° 288° (WNW) 01:22:27 145.880/145.840
VELOX 1 25 Jun 01:29:23 01:32:51 23° 265° (W) 01:36:20 145.980
BUGSAT 1 25 Jun 01:31:51 01:36:03 57° 101° (E) 01:40:12 437.445
ITUPSAT 1 25 Jun 01:34:34 01:35:06 10° 58° (ENE) 01:35:39 437.325
Gurwin Techsat 1B 25 Jun 01:34:41 01:37:37 15° 90° (E) 01:40:32 435.225
EO-79 25 Jun 01:39:22 01:43:05 29° 291° (WNW) 01:46:44 145.935-145.965
BEESAT 25 Jun 01:43:20 01:45:31 13° 60° (ENE) 01:47:42 436.000
DX 1 25 Jun 01:50:50 01:54:51 38° 262° (W) 01:58:54 434.975-435.025
DUCHIFAT 1 25 Jun 01:54:32 01:58:01 25° 292° (WNW) 02:01:27 145.980
SPROUT 25 Jun 01:59:57 02:00:22 10° 271° (W) 02:00:48 437.525
NANOSAT C BR1 25 Jun 02:03:01 02:05:59 19° 295° (WNW) 02:08:57 145.865
UKube-1 25 Jun 02:09:42 02:13:37 34° 262° (W) 02:17:34 .
RS-15 25 Jun 02:15:29 02:24:47 23° 360° (N) 02:33:57 29.354- 29.394
Oscar 19 25 Jun 02:25:26 02:30:33 72° 103° (ESE) 02:35:40 437.125/150
NO-84 25 Jun 02:39:18 02:41:49 15° 9° (N) 02:44:20 435.350 FM
MOZHAYETS 4 25 Jun 02:55:41 02:59:59 39° 71° (ENE) 03:04:18
ITAMSAT 1 25 Jun 03:03:35 03:05:38 12° 89° (E) 03:07:40 435.822/435.867
ITUPSAT 1 25 Jun 03:07:19 03:12:07 83° 75° (ENE) 03:16:58 437.325
BUGSAT 1 25 Jun 03:08:46 03:10:55 14° 297° (WNW) 03:13:04 437.445
Gurwin Techsat 1B 25 Jun 03:12:45 03:18:03 70° 287° (WNW) 03:23:20 435.225
BEESAT 25 Jun 03:17:52 03:22:39 76° 257° (WSW) 03:27:28 436.000
AO-7 25 Jun 03:26:22 03:33:15 28° 95° (E) 03:40:04 .
CUBESAT XI-V 25 Jun 03:35:46 03:39:08 20° 65° (ENE) 03:42:29 437.345
Oscar 19 25 Jun 04:06:23 04:09:16 15° 300° (WNW) 04:12:09 437.125/150
NO-84 25 Jun 04:16:34 04:20:32 32° 29° (NNE) 04:24:26 435.350 FM
RS-15 25 Jun 04:31:09 04:42:17 37° 34° (NE) 04:52:57 29.354- 29.394
MOZHAYETS 4 25 Jun 04:33:46 04:37:15 21° 267° (W) 04:40:46
KKS-1 25 Jun 04:34:23 04:38:41 55° 72° (ENE) 04:43:03 437.445
ITAMSAT 1 25 Jun 04:40:26 04:45:41 81° 286° (WNW) 04:50:55 435.822/435.867
ITUPSAT 1 25 Jun 04:49:59 04:50:32 10° 271° (W) 04:51:05 437.325
STARS 25 Jun 05:06:04 05:10:17 51° 72° (ENE) 05:14:34 437.465
CUBESAT XI-V 25 Jun 05:11:47 05:16:12 42° 262° (W) 05:20:36 437.345
AO-7 25 Jun 05:18:15 05:26:33 67° 293° (WNW) 05:34:48 .
AO-85 25 Jun 05:24:17 05:28:15 47° 53° (NE) 05:32:27 145.980
BEESAT 3 25 Jun 05:48:11 05:52:03 44° 53° (NE) 05:55:51 437.485
NO-84 25 Jun 05:54:04 05:58:18 49° 228° (SW) 06:02:22 435.350 FM
DOVE 4 25 Jun 06:12:34 06:17:19 47° 99° (E) 06:22:16 437.250
KKS-1 25 Jun 06:13:21 06:15:35 14° 269° (W) 06:17:49 437.445
NUDT-PHONESAT 25 Jun 06:16:41 06:18:41 14° 92° (E) 06:20:40 437.300
ITAMSAT 1 25 Jun 06:22:45 06:24:17 11° 303° (WNW) 06:25:48 435.822/435.867
O/OREOS (USA 219) 25 Jun 06:28:27 06:30:58 15° 52° (NE) 06:33:27 437.305
XW-2F 25 Jun 06:29:20 06:32:30 25° 95° (E) 06:35:38 145.980 - 146.000
XW-2D 25 Jun 06:32:44 06:36:06 30° 97° (E) 06:39:27 145.860 - 145.880
LilacSat-2 25 Jun 06:40:07 06:43:41 39° 98° (E) 06:47:13 437.200
XW-2B 25 Jun 06:41:35 06:45:08 37° 98° (E) 06:48:37 145.730 - 145.750
RS-15 25 Jun 06:44:02 06:56:14 83° 241° (WSW) 07:07:45 29.354- 29.394
STARS 25 Jun 06:44:30 06:46:56 15° 268° (W) 06:49:22 437.465
BEESAT 2 25 Jun 06:45:37 06:49:40 64° 55° (NE) 06:53:40 435.950
XW-2C 25 Jun 06:56:54 07:00:39 61° 101° (E) 07:04:20 145.795 - 145.815
AO-85 25 Jun 07:05:33 07:08:21 17° 248° (WSW) 07:11:16 145.980
STRAND 1 25 Jun 07:08:15 07:13:15 56° 72° (ENE) 07:18:18 437.568
KAITUO 1B 25 Jun 07:12:31 07:16:14 75° 101° (E) 07:19:54 145.475/437.950
AO-7 25 Jun 07:13:08 07:17:45 16° 314° (NW) 07:22:24 .
CUTE-I 25 Jun 07:18:50 07:24:14 78° 103° (ESE) 07:29:37 437.470
CUTE 1.7 + AOD 2 25 Jun 07:18:58 07:21:39 16° 92° (E) 07:24:19 437.475
CUBEBUG 2 25 Jun 07:25:47 07:27:03 11° 88° (E) 07:28:17 437.445
BEESAT 3 25 Jun 07:26:43 07:29:16 16° 250° (WSW) 07:31:47 437.485
NUDT-PHONESAT 25 Jun 07:49:19 07:52:44 36° 288° (WNW) 07:56:08 437.300
DOVE 4 25 Jun 07:51:04 07:54:42 21° 294° (WNW) 07:58:26 437.250
HO-68 25 Jun 07:56:04 08:02:59 48° 100° (E) 08:09:49 435.675
AAUSAT CUBESAT 2 25 Jun 07:56:12 07:57:47 12° 90° (E) 07:59:21 437.432
UWE-3 25 Jun 07:59:25 08:02:03 15° 90° (E) 08:04:38 435.000/436.395/437.385
XW-2F 25 Jun 08:03:38 08:06:30 21° 292° (WNW) 08:09:20 145.980 - 146.000
O/OREOS (USA 219) 25 Jun 08:06:23 08:10:49 64° 251° (WSW) 08:15:13 437.305
XW-2D 25 Jun 08:07:27 08:10:04 18° 293° (WNW) 08:12:39 145.860 - 145.880
LilacSat-2 25 Jun 08:15:28 08:17:38 15° 294° (WNW) 08:19:47 437.200
XW-2B 25 Jun 08:16:47 08:18:59 15° 294° (WNW) 08:21:10 145.730 - 145.750
YUBILEINY 25 Jun 08:25:04 08:32:55 34° 70° (ENE) 08:40:41 435.215
BEESAT 2 25 Jun 08:25:26 08:26:52 12° 252° (WSW) 08:28:17 435.950
Tancredo 1 25 Jun 08:31:48 08:34:46 62° 142° (SE) 08:37:47 437.200
M-CUBED/EXP-1 PRIME 25 Jun 08:33:09 08:35:32 19° 63° (ENE) 08:37:55 437.505
FO-29 25 Jun 08:36:56 08:41:43 24° 59° (ENE) 08:46:57 435.910
SEEDS 25 Jun 08:37:00 08:41:10 81° 102° (ESE) 08:45:19 437.485
ISS 25 Jun 08:45:00 08:48:05 40° 138° (SE) 08:51:11 437.550
XW-2A 25 Jun 08:47:03 08:50:23 53° 286° (WNW) 08:53:41 145.665 - 145.685
TIGRISAT 25 Jun 08:47:16 08:49:28 13° 61° (ENE) 08:51:43 435.000
PRISM 25 Jun 08:48:22 08:50:11 13° 63° (ENE) 08:52:00 437.425
STRAND 1 25 Jun 08:49:21 08:52:46 18° 268° (W) 08:56:12 437.568
CUTE 1.7 + AOD 2 25 Jun 08:53:42 08:57:40 41° 288° (WNW) 09:01:35 437.475
AO-73 25 Jun 08:55:53 08:59:47 29° 95° (E) 09:03:34 145.935
RS-15 25 Jun 08:58:57 09:06:39 20° 263° (W) 09:14:09 29.354- 29.394
CUBEBUG 2 25 Jun 08:59:28 09:04:12 76° 285° (WNW) 09:08:48 437.445
CUTE-I 25 Jun 09:00:36 09:03:36 15° 301° (WNW) 09:06:36 437.470
Oscar 11 25 Jun 09:23:23 09:27:32 44° 99° (E) 09:31:38 .
UNISAT 6 25 Jun 09:26:55 09:31:04 35° 70° (ENE) 09:35:19 437.425
DELFI C3 25 Jun 09:27:18 09:28:37 11° 90° (E) 09:29:57 145.870
AAUSAT CUBESAT 2 25 Jun 09:29:32 09:33:33 54° 286° (WNW) 09:37:33 437.432
ZACube-1 25 Jun 09:30:14 09:34:44 80° 102° (ESE) 09:39:06 437.345
UWE-3 25 Jun 09:34:21 09:38:50 53° 287° (WNW) 09:43:11 435.000/436.395/437.385
HO-68 25 Jun 09:44:09 09:50:29 35° 298° (WNW) 09:56:46 435.675
M-CUBED/EXP-1 PRIME 25 Jun 10:07:18 10:09:55 21° 258° (WSW) 10:12:31 437.505
Tancredo 1 25 Jun 10:08:09 10:10:35 22° 339° (NNW) 10:13:02 437.200
FO-29 25 Jun 10:20:11 10:26:06 62° 260° (W) 10:32:52 435.910
TIGRISAT 25 Jun 10:20:58 10:25:32 70° 258° (WSW) 10:30:13 435.000
PRISM 25 Jun 10:21:01 10:24:59 55° 259° (W) 10:28:59 437.425
YUBILEINY 25 Jun 10:21:33 10:30:04 55° 270° (W) 10:38:30 435.215
ISS 25 Jun 10:21:42 10:24:37 30° 336° (NNW) 10:27:35 437.550
EO-88 25 Jun 10:30:32 10:34:01 42° 99° (E) 10:37:29 145.990 - 145.960
AO-73 25 Jun 10:32:13 10:35:53 26° 292° (WNW) 10:39:29 145.935
QB50P2 25 Jun 10:33:34 10:35:17 12° 62° (ENE) 10:37:01 145.880/145.840
LO-87 25 Jun 10:56:33 10:57:31 11° 91° (E) 10:58:30 145.935 - 145.965
EO-79 25 Jun 10:56:40 10:59:44 20° 66° (ENE) 11:02:49 145.935-145.965
DELFI C3 25 Jun 10:59:51 11:03:41 52° 286° (WNW) 11:07:31 145.870
Oscar 11 25 Jun 11:00:31 11:03:18 17° 295° (WNW) 11:06:04 .
AIST 2D 25 Jun 11:03:14 11:06:36 41° 73° (ENE) 11:09:58 435.315
UNISAT 6 25 Jun 11:04:08 11:07:49 24° 266° (W) 11:11:35 437.425
ZACube-1 25 Jun 11:09:09 11:10:18 11° 300° (WNW) 11:11:26 437.345
DUCHIFAT 1 25 Jun 11:10:50 11:14:07 22° 67° (ENE) 11:17:26 145.980
NANOSAT C BR1 25 Jun 11:18:41 11:22:22 30° 69° (ENE) 11:26:06 145.865
PCSat 25 Jun 11:25:38 11:29:40 22° 107° (ESE) 11:33:44 145.827
ESTCUBE 1 25 Jun 11:39:08 11:42:45 24° 95° (E) 11:46:21 437.505/2401.250
Tancredo 1 25 Jun 11:45:34 11:47:01 13° 359° (N) 11:48:28 437.200
POLYITAN 1 25 Jun 11:55:24 11:59:40 86° 81° (E) 12:03:59 437.675
ISS 25 Jun 11:59:57 12:01:54 15° 356° (N) 12:03:51 437.550
EO-88 25 Jun 12:05:38 12:07:18 13° 295° (WNW) 12:08:59 145.990 - 145.960
Oscar 19 25 Jun 12:06:14 12:08:52 14° 60° (ENE) 12:11:30 437.125/150
QB50P2 25 Jun 12:06:18 12:10:31 65° 259° (W) 12:14:47 145.880/145.840
SPROUT 25 Jun 12:07:24 12:08:52 11° 90° (E) 12:10:20 437.525
BUGSAT 1 25 Jun 12:21:26 12:25:16 39° 71° (ENE) 12:29:11 437.445
LO-87 25 Jun 12:27:41 12:31:12 46° 286° (WNW) 12:34:42 145.935 - 145.965
EO-79 25 Jun 12:31:17 12:35:13 37° 262° (W) 12:39:13 145.935-145.965
AIST 2D 25 Jun 12:38:46 12:40:00 11° 269° (W) 12:41:15 435.315
DUCHIFAT 1 25 Jun 12:45:49 12:49:36 32° 263° (W) 12:53:25 145.980
NANOSAT C BR1 25 Jun 12:54:41 12:58:04 23° 265° (W) 13:01:30 145.865
Gurwin Techsat 1B 25 Jun 12:55:25 12:59:42 25° 65° (ENE) 13:04:00 435.225
PCSat 25 Jun 13:07:21 13:12:38 54° 304° (WNW) 13:17:59 145.827
ESTCUBE 1 25 Jun 13:15:35 13:19:34 32° 291° (WNW) 13:23:34 437.505/2401.250
VELOX 1 25 Jun 13:17:49 13:22:13 64° 101° (ESE) 13:26:37 145.980
Tancredo 1 25 Jun 13:21:05 13:23:29 20° 20° (NNE) 13:25:51 437.200
ISS 25 Jun 13:36:50 13:39:20 19° 16° (NNE) 13:41:49 437.550
DX 1 25 Jun 13:38:28 13:42:27 34° 98° (E) 13:46:25 434.975-435.025
SPROUT 25 Jun 13:40:54 13:45:10 62° 285° (WNW) 13:49:24 437.525
Oscar 19 25 Jun 13:42:21 13:47:31 78° 257° (WSW) 13:52:41 437.125/150
50 SAT 25 Jun 13:50:04 13:53:29 77° 103° (ESE) 13:56:53 437.505
UKube-1 25 Jun 13:56:04 14:00:03 35° 98° (E) 14:04:01 .
BUGSAT 1 25 Jun 13:58:03 14:00:48 17° 268° (W) 14:03:34 437.445
SO-50 25 Jun 14:03:47 14:07:49 32° 115° (ESE) 14:11:50 436.795
ITAMSAT 1 25 Jun 14:20:53 14:24:42 21° 63° (ENE) 14:28:33 435.822/435.867
AO-7 25 Jun 14:25:24 14:32:57 40° 60° (ENE) 14:40:32 .
Gurwin Techsat 1B 25 Jun 14:34:22 14:39:24 43° 262° (W) 14:44:27 435.225
PCSat 25 Jun 14:55:41 14:57:20 11° 325° (NW) 14:58:58 145.827
VELOX 1 25 Jun 14:56:01 14:58:08 13° 298° (WNW) 15:00:15 145.980
Tancredo 1 25 Jun 14:56:17 14:59:19 71° 218° (SW) 15:02:21 437.200
ITUPSAT 1 25 Jun 15:08:25 15:12:00 21° 94° (E) 15:15:33 437.325
ISS 25 Jun 15:12:55 15:16:13 80° 34° (NE) 15:19:31 437.550
DX 1 25 Jun 15:15:02 15:18:26 22° 294° (WNW) 15:21:49 434.975-435.025
BEESAT 25 Jun 15:18:11 15:22:12 26° 95° (E) 15:26:12 436.000
UKube-1 25 Jun 15:32:35 15:35:51 21° 294° (WNW) 15:39:07 .
SO-50 25 Jun 15:44:11 15:48:14 31° 312° (NW) 15:52:17 436.795
ITAMSAT 1 25 Jun 15:58:44 16:03:47 51° 260° (W) 16:08:53 435.822/435.867
AO-7 25 Jun 16:17:35 16:25:32 49° 259° (W) 16:33:34 .
MOZHAYETS 4 25 Jun 16:27:02 16:31:39 90° 313° (NW) 16:36:13
KKS-1 25 Jun 16:28:05 16:28:40 10° 89° (E) 16:29:15 437.445
ITUPSAT 1 25 Jun 16:45:28 16:49:59 42° 290° (WNW) 16:54:28 437.325
ISS 25 Jun 16:50:58 16:52:16 12° 230° (SW) 16:53:34 437.550
BEESAT 25 Jun 16:55:43 16:59:59 33° 292° (WNW) 17:04:14 436.000
CUTE-I 25 Jun 17:03:15 17:06:43 18° 61° (ENE) 17:10:11 437.470
CUBESAT XI-V 25 Jun 17:07:46 17:12:11 44° 99° (E) 17:16:34 437.345
XW-2F 25 Jun 17:11:22 17:13:25 14° 66° (ENE) 17:15:29 145.980 - 146.000
XW-2D 25 Jun 17:14:47 17:17:17 17° 67° (ENE) 17:19:47 145.860 - 145.880
DOVE 4 25 Jun 17:18:44 17:22:38 42° 72° (ENE) 17:26:41 437.250
LilacSat-2 25 Jun 17:22:28 17:25:24 21° 68° (ENE) 17:28:21 437.200
XW-2B 25 Jun 17:23:23 17:26:14 20° 68° (ENE) 17:29:05 145.730 - 145.750
XW-2C 25 Jun 17:38:15 17:41:37 30° 71° (ENE) 17:45:00 145.795 - 145.815
KAITUO 1B 25 Jun 17:52:28 17:55:54 33° 72° (ENE) 17:59:20 145.475/437.950
KKS-1 25 Jun 18:01:14 18:05:43 75° 285° (WNW) 18:10:10 437.445
MOZHAYETS 4 25 Jun 18:07:46 18:08:03 10° 301° (WNW) 18:08:19
CUTE 1.7 + AOD 2 25 Jun 18:12:41 18:14:40 13° 63° (ENE) 18:16:38 437.475
CUBEBUG 2 25 Jun 18:24:53 18:25:41 10° 59° (ENE) 18:26:30 437.445
HO-68 25 Jun 18:24:59 18:31:25 37° 63° (ENE) 18:37:51 435.675
NUDT-PHONESAT 25 Jun 18:27:51 18:31:37 86° 253° (WSW) 18:35:24 437.300
STARS 25 Jun 18:31:03 18:35:31 84° 284° (WNW) 18:39:56 437.465
CUTE-I 25 Jun 18:40:56 18:46:12 65° 258° (WSW) 18:51:32 437.470
XW-2F 25 Jun 18:43:32 18:47:11 42° 261° (W) 18:50:50 145.980 - 146.000
CUBESAT XI-V 25 Jun 18:45:59 18:49:12 19° 295° (WNW) 18:52:25 437.345
XW-2D 25 Jun 18:47:39 18:51:12 35° 262° (W) 18:54:44 145.860 - 145.880
LilacSat-2 25 Jun 18:56:11 18:59:31 27° 264° (W) 19:02:52 437.200
XW-2B 25 Jun 18:56:53 19:00:14 28° 264° (W) 19:03:36 145.730 - 145.750
UWE-3 25 Jun 18:56:56 18:59:15 14° 62° (ENE) 19:01:37 435.000/436.395/437.385
DOVE 4 25 Jun 18:58:06 19:00:36 15° 269° (W) 19:03:09 437.250
RS-15 25 Jun 19:01:51 19:07:25 14° 94° (E) 19:13:01 29.354- 29.394
XW-2C 25 Jun 19:13:04 19:15:50 19° 266° (W) 19:18:37 145.795 - 145.815
XW-2A 25 Jun 19:18:00 19:21:17 44° 74° (ENE) 19:24:36 145.665 - 145.685
STRAND 1 25 Jun 19:19:31 19:23:04 19° 92° (E) 19:26:37 437.568
KAITUO 1B 25 Jun 19:27:35 19:30:00 16° 267° (W) 19:32:25 145.475/437.950
SEEDS 25 Jun 19:28:21 19:32:27 54° 74° (ENE) 19:36:33 437.485
AO-85 25 Jun 19:41:22 19:43:09 13° 110° (ESE) 19:44:54 145.980
CUTE 1.7 + AOD 2 25 Jun 19:45:47 19:50:00 59° 260° (W) 19:54:12 437.475
AO-73 25 Jun 19:51:16 19:54:57 25° 67° (ENE) 19:58:41 145.935
CUBEBUG 2 25 Jun 19:56:55 20:01:29 89° 80° (E) 20:06:14 437.445
HO-68 25 Jun 20:12:09 20:18:58 45° 261° (W) 20:25:50 435.675
PCSat 25 Jun 20:12:16 20:16:27 22° 45° (NE) 20:20:36 145.827
Oscar 11 25 Jun 20:18:07 20:22:04 35° 71° (ENE) 20:26:01 .
AAUSAT CUBESAT 2 25 Jun 20:19:08 20:23:16 85° 261° (W) 20:27:23 437.432
ZACube-1 25 Jun 20:25:22 20:29:51 62° 74° (ENE) 20:34:24 437.345
UWE-3 25 Jun 20:30:33 20:35:06 67° 259° (W) 20:39:46 435.000/436.395/437.385
O/OREOS (USA 219) 25 Jun 20:41:48 20:44:11 14° 99° (E) 20:46:33 437.305
STRAND 1 25 Jun 20:57:33 21:02:34 53° 289° (WNW) 21:07:33 437.568
RS-15 25 Jun 21:05:26 21:17:21 67° 115° (ESE) 21:29:32 29.354- 29.394
SEEDS 25 Jun 21:06:37 21:08:27 13° 270° (W) 21:10:17 437.485
EO-88 25 Jun 21:08:54 21:11:36 20° 68° (ENE) 21:14:19 145.990 - 145.960
NO-84 25 Jun 21:11:09 21:14:16 24° 126° (SE) 21:17:35 435.350 FM
BEESAT 3 25 Jun 21:14:45 21:18:42 75° 121° (ESE) 21:22:43 437.485
AO-85 25 Jun 21:19:05 21:23:05 56° 305° (NW) 21:26:58 145.980
YUBILEINY 25 Jun 21:26:23 21:34:14 38° 85° (E) 21:42:07 435.215
AO-73 25 Jun 21:26:55 21:31:00 33° 264° (W) 21:35:09 145.935
FO-29 25 Jun 21:29:20 21:35:29 25° 90° (E) 21:41:33 435.910
M-CUBED/EXP-1 PRIME 25 Jun 21:44:31 21:46:52 16° 100° (E) 21:49:19 437.505
DELFI C3 25 Jun 21:44:47 21:48:42 85° 77° (ENE) 21:52:38 145.870
PCSat 25 Jun 21:54:56 22:00:19 65° 244° (WSW) 22:05:40 145.827
Oscar 11 25 Jun 21:54:59 21:58:16 21° 267° (W) 22:01:33 .
PRISM 25 Jun 22:02:42 22:05:36 18° 94° (E) 22:08:30 437.425
ZACube-1 25 Jun 22:04:23 22:06:31 13° 271° (W) 22:08:41 437.345
TIGRISAT 25 Jun 22:12:51 22:16:41 25° 94° (E) 22:20:25 435.000
BEESAT 2 25 Jun 22:14:01 22:17:59 73° 303° (WNW) 22:22:02 435.950
O/OREOS (USA 219) 25 Jun 22:18:36 22:23:04 56° 295° (WNW) 22:27:32 437.305
SO-50 25 Jun 22:34:25 22:38:29 32° 48° (NE) 22:42:34 436.795
ESTCUBE 1 25 Jun 22:38:55 22:42:26 23° 67° (ENE) 22:45:58 437.505/2401.250
EO-88 25 Jun 22:41:58 22:45:07 26° 264° (W) 22:48:16 145.990 - 145.960
NO-84 25 Jun 22:47:43 22:51:35 48° 325° (NW) 22:55:42 435.350 FM
UNISAT 6 25 Jun 22:54:25 22:59:06 75° 101° (E) 23:03:40 437.425
BEESAT 3 25 Jun 22:54:36 22:56:46 14° 319° (NW) 22:58:57 437.485
LO-87 25 Jun 23:03:22 23:06:53 65° 75° (ENE) 23:10:27 145.935 - 145.965
FO-29 25 Jun 23:13:13 23:21:02 73° 287° (WNW) 23:28:45 435.910
M-CUBED/EXP-1 PRIME 25 Jun 23:17:54 23:21:23 39° 292° (WNW) 23:25:06 437.505
RS-15 25 Jun 23:19:04 23:30:38 45° 320° (NW) 23:42:20 29.354- 29.394
YUBILEINY 25 Jun 23:22:23 23:30:47 48° 285° (WNW) 23:39:17 435.215
PRISM 25 Jun 23:37:13 23:40:57 35° 290° (WNW) 23:44:43 437.425
POLYITAN 1 25 Jun 23:41:34 23:43:47 14° 91° (E) 23:46:01 437.675
TIGRISAT 25 Jun 23:49:12 23:53:22 33° 291° (WNW) 23:57:27 435.000
QB50P2 25 Jun 23:51:38 23:54:47 20° 93° (E) 23:57:55 145.880/145.840
BEESAT 2 25 Jun 23:55:34 23:56:29 11° 323° (NW) 23:57:24 435.950
AIST 2D 26 Jun 00:00:59 00:04:24 49° 99° (E) 00:07:47 435.315
VELOX 1 26 Jun 00:14:54 00:19:11 56° 73° (ENE) 00:23:29 145.980
SO-50 26 Jun 00:14:55 00:18:53 30° 246° (WSW) 00:22:52 436.795
ESTCUBE 1 26 Jun 00:14:56 00:19:02 34° 263° (W) 00:23:10 437.505/2401.250
EO-79 26 Jun 00:15:30 00:19:23 33° 97° (E) 00:23:13 145.935-145.965
50 SAT 26 Jun 00:22:13 00:25:04 26° 70° (ENE) 00:27:55 437.505
NO-84 26 Jun 00:27:16 00:30:03 17° 345° (NNW) 00:32:54 435.350 FM
DUCHIFAT 1 26 Jun 00:29:06 00:33:04 37° 98° (E) 00:37:00 145.980
UNISAT 6 26 Jun 00:33:11 00:35:09 13° 299° (WNW) 00:37:06 437.425
